Weather in Moyka

Russia / Novgorod Oblast     58°37′29″N   30°38′00″E
temp.,
°C
wind,
m/s
gust,
m/s
humid.,
%
clouds,
%
prec.,
mm/h
press.,
hPa
HPBL,
m
19 january, wed
wed1900:00−6wsw31188100 0.0 1017277
03:00−4sw41293100 0.1 1015467
06:00−3sw4119584 0.3 1012461
09:00−2wsw41093100 0.4 1010562
12:00−1sw41094100 0.0 1009516
15:000sw41195100 0.0 1007642
18:00+1sw51397100 0.0 1003704
21:00+1sw51494100 0.0 1001679
20 january, thu
thu2000:00+1sw51391100 0.0 998683
03:00+1ssw51487100 0.0 996559
06:00+1ssw51487100 0.0 993606
09:00+1s51485100 0.0 990769
12:00+1s61287100 0.0 989930
15:000s51297100 1.4 987942
18:000s61289100 0.7 9861071
21:00−2s5129299 1.1 988794
21 january, fri
fri2100:00−3s4992100 0.1 989643
03:00−5sse399599 0.2 990398
06:00−5se4995100 0.2 991536
09:00−6se399395 0.3 992486
12:00−5ese4895100 0.3 994495
15:00−5e4794100 1.1 996510
18:00−6ene3894100 0.3 998379
21:00−8ne389681 0.3 1000215
22 january, sat
sat2200:00−10nne3896100 0.0 1003174
03:00−7n3995100 0.1 1004352
06:00−5ne499499 0.9 1006741
09:00−8ne499298 1.0 1010428
12:00−9nne499275 0.0 1013385
15:00−8nne3792100 0.0 1015391
18:00−9nne389485 0.1 1018348
21:00−11nne279776 0.1 1021167
23 january, sun
sun2300:00−14ne259756 0.0 102484
03:00−16nne139853 0.0 102647
06:00−16nne139839 0.0 102851
09:00−17ene119839 0.0 103020
12:00−11nnw119255 0.0 103393
15:00−9sw01925 0.0 1033111
18:00−14sw119867 0.0 10349
21:00−15sw119969 0.0 103510